Time,TemperatureF,DewpointF,PressureIn,WindDirection,WindDirectionDegrees,WindSpeedMPH,WindSpeedGustMPH,Humidity,HourlyPrecipIn,Conditions,Clouds,dailyrainin,SoftwareType,DateUTC
2013-02-14 00:00:00,45.8,35.1,30.14,East,95,0.0,0.0,66,0.00,,CLR,0.00,VWS V14.01,2013-02-14 06:00:00,
2013-02-14 00:05:00,45.7,35.0,30.14,East,95,0.0,0.0,66,0.00,,CLR,0.00,VWS V14.01,2013-02-14 06:05:00,
2013-02-14 00:10:00,45.5,35.2,30.14,East,95,0.0,0.0,67,0.00,,CLR,0.00,VWS V14.01,2013-02-14 06:10:00,
2013-02-14 00:15:00,45.4,35.1,30.14,East,95,0.0,0.0,67,0.00,,CLR,0.00,VWS V14.01,2013-02-14 06:15:00,
2013-02-14 00:20:00,45.2,34.9,30.14,East,95,0.0,0.0,67,0.00,,CLR,0.00,VWS V14.01,2013-02-14 06:20:00,
2013-02-14 00:25:00,45.1,35.2,30.14,East,95,0.0,0.0,68,0.00,,CLR,0.00,VWS V14.01,2013-02-14 06:25:00,
2013-02-14 00:30:00,44.9,35.0,30.14,East,95,0.0,0.0,68,0.00,,CLR,0.00,VWS V14.01,2013-02-14 06:30:00,
2013-02-14 00:35:00,44.8,34.9,30.14,East,95,0.0,0.0,68,0.00,,CLR,0.00,VWS V14.01,2013-02-14 06:35:00,
2013-02-14 00:40:00,44.6,34.7,30.14,East,95,0.0,0.0,68,0.00,,CLR,0.00,VWS V14.01,2013-02-14 06:40:00,
2013-02-14 00:45:00,44.5,35.0,30.14,East,95,0.0,0.0,69,0.00,,CLR,0.00,VWS V14.01,2013-02-14 06:45:00,
2013-02-14 00:50:00,44.3,34.8,30.14,East,95,0.0,0.0,69,0.00,,CLR,0.00,VWS V14.01,2013-02-14 06:50:00,
2013-02-14 00:55:00,44.3,34.8,30.14,East,95,0.0,0.0,69,0.00,,CLR,0.00,VWS V14.01,2013-02-14 06:55:00,
2013-02-14 01:00:00,44.2,34.3,30.14,East,95,0.0,0.0,68,0.00,,CLR,0.00,VWS V14.01,2013-02-14 07:00:00,
2013-02-14 01:05:00,43.9,34.0,30.14,East,95,0.0,0.0,68,0.00,,CLR,0.00,VWS V14.01,2013-02-14 07:05:00,
2013-02-14 01:10:00,43.8,33.6,30.14,East,95,0.0,0.0,67,0.00,,CLR,0.00,VWS V14.01,2013-02-14 07:10:00,
2013-02-14 01:15:00,43.5,33.3,30.14,East,95,0.0,0.0,67,0.00,,CLR,0.00,VWS V14.01,2013-02-14 07:15:00,
2013-02-14 01:20:00,43.2,33.4,30.14,East,95,0.0,0.0,68,0.00,,CLR,0.00,VWS V14.01,2013-02-14 07:20:00,
2013-02-14 01:25:00,42.9,33.1,30.14,East,95,0.0,0.0,68,0.00,,CLR,0.00,VWS V14.01,2013-02-14 07:25:00,
2013-02-14 01:30:00,42.5,33.1,30.14,East,95,0.0,0.0,69,0.00,,CLR,0.00,VWS V14.01,2013-02-14 07:30:00,
2013-02-14 01:35:00,42.2,32.8,30.14,East,95,0.0,0.0,69,0.00,,CLR,0.00,VWS V14.01,2013-02-14 07:35:00,
2013-02-14 01:40:00,41.9,32.5,30.14,East,95,0.0,0.0,69,0.00,,CLR,0.00,VWS V14.01,2013-02-14 07:40:00,
2013-02-14 01:45:00,41.8,32.4,30.14,East,95,0.0,0.0,69,0.00,,CLR,0.00,VWS V14.01,2013-02-14 07:45:00,
2013-02-14 01:50:00,41.6,32.2,30.14,East,95,0.0,0.0,69,0.00,,CLR,0.00,VWS V14.01,2013-02-14 07:50:00,
2013-02-14 01:55:00,41.6,32.2,30.14,East,95,0.0,0.0,69,0.00,,CLR,0.00,VWS V14.01,2013-02-14 07:55:00,
2013-02-14 02:00:00,41.6,32.2,30.14,East,95,0.0,0.0,69,0.00,,CLR,0.00,VWS V14.01,2013-02-14 08:00:00,
2013-02-14 02:05:00,41.8,32.4,30.14,East,95,0.0,0.0,69,0.00,,CLR,0.00,VWS V14.01,2013-02-14 08:05:00,
2013-02-14 02:10:00,41.9,32.5,30.14,East,95,0.0,0.0,69,0.00,,CLR,0.00,VWS V14.01,2013-02-14 08:10:00,
2013-02-14 02:15:00,41.9,32.5,30.14,East,95,0.0,0.0,69,0.00,,CLR,0.00,VWS V14.01,2013-02-14 08:15:00,
2013-02-14 02:20:00,42.1,32.7,30.14,East,95,0.0,0.0,69,0.00,,CLR,0.00,VWS V14.01,2013-02-14 08:20:00,
2013-02-14 02:25:00,42.1,33.0,30.14,East,95,0.0,0.0,70,0.00,,CLR,0.00,VWS V14.01,2013-02-14 08:25:00,
2013-02-14 02:30:00,41.9,32.8,30.14,East,95,0.0,0.0,70,0.00,,CLR,0.00,VWS V14.01,2013-02-14 08:30:00,
2013-02-14 02:35:00,41.8,32.8,30.14,East,95,0.0,0.0,70,0.00,,CLR,0.00,VWS V14.01,2013-02-14 08:35:00,
2013-02-14 02:40:00,41.6,32.6,30.14,East,95,0.0,0.0,70,0.00,,CLR,0.00,VWS V14.01,2013-02-14 08:40:00,
2013-02-14 02:45:00,41.6,32.6,30.14,East,95,0.0,0.0,70,0.00,,CLR,0.00,VWS V14.01,2013-02-14 08:45:00,
2013-02-14 02:50:00,41.5,32.8,30.13,East,95,0.0,0.0,71,0.00,,CLR,0.00,VWS V14.01,2013-02-14 08:50:00,
2013-02-14 02:55:00,41.3,32.6,30.13,East,95,0.0,0.0,71,0.00,,CLR,0.00,VWS V14.01,2013-02-14 08:55:00,
2013-02-14 03:00:00,41.2,32.5,30.13,East,95,0.0,0.0,71,0.00,,CLR,0.00,VWS V14.01,2013-02-14 09:00:00,
2013-02-14 03:05:00,40.9,32.6,30.13,East,95,0.0,0.0,72,0.00,,CLR,0.00,VWS V14.01,2013-02-14 09:05:00,
2013-02-14 03:10:00,40.6,32.3,30.13,East,95,0.0,0.0,72,0.00,,CLR,0.00,VWS V14.01,2013-02-14 09:10:00,
2013-02-14 03:15:00,40.5,32.2,30.13,East,95,0.0,0.0,72,0.00,,CLR,0.00,VWS V14.01,2013-02-14 09:15:00,
2013-02-14 03:20:00,40.5,32.5,30.13,East,95,0.0,0.0,73,0.00,,CLR,0.00,VWS V14.01,2013-02-14 09:20:00,
2013-02-14 03:25:00,40.2,32.2,30.13,East,95,0.0,0.0,73,0.00,,CLR,0.00,VWS V14.01,2013-02-14 09:25:00,
2013-02-14 03:30:00,39.9,32.0,30.13,East,95,0.0,0.0,73,0.00,,CLR,0.00,VWS V14.01,2013-02-14 09:30:00,
2013-02-14 03:35:00,39.8,32.2,30.13,East,95,0.0,0.0,74,0.00,,CLR,0.00,VWS V14.01,2013-02-14 09:35:00,
2013-02-14 03:40:00,39.5,31.9,30.13,East,95,0.0,0.0,74,0.00,,CLR,0.00,VWS V14.01,2013-02-14 09:40:00,
2013-02-14 03:45:00,39.3,32.0,30.13,East,95,0.0,0.0,75,0.00,,CLR,0.00,VWS V14.01,2013-02-14 09:45:00,
2013-02-14 03:50:00,39.3,32.0,30.13,East,95,0.0,0.0,75,0.00,,CLR,0.00,VWS V14.01,2013-02-14 09:50:00,
2013-02-14 03:55:00,39.3,32.4,30.13,East,95,0.0,0.0,76,0.00,,CLR,0.00,VWS V14.01,2013-02-14 09:55:00,
2013-02-14 04:00:00,39.5,32.6,30.13,East,95,0.0,0.0,76,0.00,,CLR,0.00,VWS V14.01,2013-02-14 10:00:00,
2013-02-14 04:05:00,39.5,32.6,30.13,East,95,0.0,0.0,76,0.00,,CLR,0.00,VWS V14.01,2013-02-14 10:05:00,
2013-02-14 04:10:00,39.5,32.9,30.13,East,95,0.0,0.0,77,0.00,,CLR,0.00,VWS V14.01,2013-02-14 10:10:00,
2013-02-14 04:15:00,39.5,32.9,30.13,East,95,0.0,0.0,77,0.00,,CLR,0.00,VWS V14.01,2013-02-14 10:15:00,
2013-02-14 04:20:00,39.5,32.9,30.13,East,95,0.0,0.0,77,0.00,,CLR,0.00,VWS V14.01,2013-02-14 10:20:00,
2013-02-14 04:25:00,39.3,32.7,30.13,East,95,0.0,0.0,77,0.00,,CLR,0.00,VWS V14.01,2013-02-14 10:25:00,
2013-02-14 04:30:00,39.2,32.6,30.13,East,95,0.0,0.0,77,0.00,,CLR,0.00,VWS V14.01,2013-02-14 10:30:00,
2013-02-14 04:35:00,39.2,32.6,30.13,East,95,0.0,0.0,77,0.00,,CLR,0.00,VWS V14.01,2013-02-14 10:35:00,
2013-02-14 04:40:00,39.1,32.8,30.13,East,95,0.0,0.0,78,0.00,,CLR,0.00,VWS V14.01,2013-02-14 10:40:00,
2013-02-14 04:45:00,39.1,32.8,30.13,East,95,0.0,0.0,78,0.00,,CLR,0.00,VWS V14.01,2013-02-14 10:45:00,
2013-02-14 04:50:00,39.2,33.2,30.13,East,95,0.0,0.0,79,0.00,,CLR,0.00,VWS V14.01,2013-02-14 10:50:00,
2013-02-14 04:55:00,39.2,33.2,30.13,East,95,0.0,0.0,79,0.00,,CLR,0.00,VWS V14.01,2013-02-14 10:55:00,
2013-02-14 05:00:00,39.2,33.2,30.13,East,95,0.0,0.0,79,0.00,,CLR,0.00,VWS V14.01,2013-02-14 11:00:00,
2013-02-14 05:05:00,39.2,33.2,30.13,East,95,0.0,0.0,79,0.00,,CLR,0.00,VWS V14.01,2013-02-14 11:05:00,
2013-02-14 05:10:00,39.2,33.2,30.13,East,95,0.0,0.0,79,0.00,,CLR,0.00,VWS V14.01,2013-02-14 11:10:00,
2013-02-14 05:15:00,39.1,33.2,30.13,East,95,0.0,0.0,79,0.00,,CLR,0.00,VWS V14.01,2013-02-14 11:15:00,
2013-02-14 05:20:00,39.1,33.2,30.13,East,95,0.0,0.0,79,0.00,,CLR,0.00,VWS V14.01,2013-02-14 11:20:00,
2013-02-14 05:25:00,39.1,33.2,30.13,East,95,0.0,0.0,79,0.00,,CLR,0.00,VWS V14.01,2013-02-14 11:25:00,
2013-02-14 05:30:00,38.9,33.0,30.13,East,95,0.0,0.0,79,0.00,,CLR,0.00,VWS V14.01,2013-02-14 11:30:00,
2013-02-14 05:35:00,38.8,32.9,30.13,East,95,0.0,0.0,79,0.00,,CLR,0.00,VWS V14.01,2013-02-14 11:35:00,
2013-02-14 05:40:00,38.6,32.7,30.13,East,95,0.0,0.0,79,0.00,,CLR,0.00,VWS V14.01,2013-02-14 11:40:00,
2013-02-14 05:45:00,38.5,32.6,30.13,East,95,0.0,0.0,79,0.00,,CLR,0.00,VWS V14.01,2013-02-14 11:45:00,
2013-02-14 05:50:00,38.3,32.4,30.13,East,95,0.0,0.0,79,0.00,,CLR,0.00,VWS V14.01,2013-02-14 11:50:00,
2013-02-14 05:55:00,38.2,32.3,30.13,East,95,0.0,0.0,79,0.00,,CLR,0.00,VWS V14.01,2013-02-14 11:55:00,
2013-02-14 06:00:00,38.2,32.3,30.13,East,95,0.0,0.0,79,0.00,,CLR,0.00,VWS V14.01,2013-02-14 12:00:00,
2013-02-14 06:05:00,38.0,32.1,30.13,East,95,0.0,0.0,79,0.00,,CLR,0.00,VWS V14.01,2013-02-14 12:05:00,
2013-02-14 06:10:00,37.9,32.0,30.13,East,95,0.0,0.0,79,0.00,,CLR,0.00,VWS V14.01,2013-02-14 12:10:00,
2013-02-14 06:15:00,37.8,31.9,30.13,East,95,0.0,0.0,79,0.00,,CLR,0.00,VWS V14.01,2013-02-14 12:15:00,
2013-02-14 06:20:00,37.6,31.7,30.14,East,95,0.0,0.0,79,0.00,,CLR,0.00,VWS V14.01,2013-02-14 12:20:00,
2013-02-14 06:25:00,37.5,31.6,30.14,East,95,0.0,0.0,79,0.00,,CLR,0.00,VWS V14.01,2013-02-14 12:25:00,
2013-02-14 06:30:00,37.5,31.6,30.14,East,95,0.0,0.0,79,0.00,,CLR,0.00,VWS V14.01,2013-02-14 12:30:00,
2013-02-14 06:35:00,37.3,31.4,30.14,East,95,0.0,0.0,79,0.00,,CLR,0.00,VWS V14.01,2013-02-14 12:35:00,
2013-02-14 06:40:00,37.3,31.4,30.14,East,94,0.0,3.0,79,0.00,,CLR,0.00,VWS V14.01,2013-02-14 12:40:00,
2013-02-14 06:45:00,37.6,32.0,30.14,East,94,0.0,3.0,80,0.00,,CLR,0.00,VWS V14.01,2013-02-14 12:45:00,
2013-02-14 06:50:00,37.8,32.2,30.15,East,94,0.0,0.0,80,0.00,,CLR,0.00,VWS V14.01,2013-02-14 12:50:00,
2013-02-14 06:55:00,37.8,32.2,30.15,East,94,0.0,0.0,80,0.00,,CLR,0.00,VWS V14.01,2013-02-14 12:55:00,
2013-02-14 07:00:00,37.8,31.9,30.15,East,94,0.0,0.0,79,0.00,,CLR,0.00,VWS V14.01,2013-02-14 13:00:00,
2013-02-14 07:05:00,37.9,32.0,30.15,East,94,0.0,0.0,79,0.00,,CLR,0.00,VWS V14.01,2013-02-14 13:05:00,
2013-02-14 07:10:00,37.9,32.0,30.15,East,94,0.0,0.0,79,0.00,,CLR,0.00,VWS V14.01,2013-02-14 13:10:00,
2013-02-14 07:15:00,38.0,32.1,30.15,East,94,0.0,0.0,79,0.00,,CLR,0.00,VWS V14.01,2013-02-14 13:15:00,
2013-02-14 07:20:00,37.9,32.0,30.15,East,94,0.0,0.0,79,0.00,,CLR,0.00,VWS V14.01,2013-02-14 13:20:00,
2013-02-14 07:25:00,37.9,32.0,30.15,East,94,0.0,0.0,79,0.00,,CLR,0.00,VWS V14.01,2013-02-14 13:25:00,
2013-02-14 07:30:00,37.9,32.0,30.15,East,94,0.0,0.0,79,0.00,,CLR,0.00,VWS V14.01,2013-02-14 13:30:00,
2013-02-14 07:35:00,38.0,32.1,30.15,East,94,0.0,0.0,79,0.00,,CLR,0.00,VWS V14.01,2013-02-14 13:35:00,
2013-02-14 07:40:00,38.3,32.4,30.15,East,94,0.0,0.0,79,0.00,,CLR,0.00,VWS V14.01,2013-02-14 13:40:00,
2013-02-14 07:45:00,38.8,32.9,30.15,East,94,0.0,0.0,79,0.00,,CLR,0.00,VWS V14.01,2013-02-14 13:45:00,
2013-02-14 07:50:00,39.1,33.2,30.16,East,94,0.0,0.0,79,0.00,,CLR,0.00,VWS V14.01,2013-02-14 13:50:00,
2013-02-14 07:55:00,39.5,33.5,30.16,East,94,0.0,0.0,79,0.00,,CLR,0.00,VWS V14.01,2013-02-14 13:55:00,
2013-02-14 08:00:00,39.8,33.5,30.16,East,94,0.0,0.0,78,0.00,,CLR,0.00,VWS V14.01,2013-02-14 14:00:00,
2013-02-14 08:05:00,40.1,33.8,30.16,East,94,0.0,0.0,78,0.00,,CLR,0.00,VWS V14.01,2013-02-14 14:05:00,
2013-02-14 08:10:00,40.5,33.9,30.16,East,94,0.0,0.0,77,0.00,,CLR,0.00,VWS V14.01,2013-02-14 14:10:00,
2013-02-14 08:15:00,41.2,34.2,30.16,East,94,0.0,0.0,76,0.00,,CLR,0.00,VWS V14.01,2013-02-14 14:15:00,
2013-02-14 08:20:00,41.8,34.5,30.16,East,94,0.0,0.0,75,0.00,,CLR,0.00,VWS V14.01,2013-02-14 14:20:00,
2013-02-14 08:25:00,42.5,34.8,30.16,East,94,0.0,0.0,74,0.00,,CLR,0.00,VWS V14.01,2013-02-14 14:25:00,
2013-02-14 08:30:00,43.2,34.8,30.16,East,94,0.0,0.0,72,0.00,,CLR,0.00,VWS V14.01,2013-02-14 14:30:00,
2013-02-14 08:35:00,44.1,35.7,30.16,East,94,0.0,0.0,72,0.00,,CLR,0.00,VWS V14.01,2013-02-14 14:35:00,
2013-02-14 08:40:00,44.9,35.7,30.16,East,94,0.0,0.0,70,0.00,,CLR,0.00,VWS V14.01,2013-02-14 14:40:00,
2013-02-14 08:45:00,45.8,36.2,30.16,East,94,0.0,0.0,69,0.00,,CLR,0.00,VWS V14.01,2013-02-14 14:45:00,
2013-02-14 08:50:00,47.0,36.6,30.16,East,94,0.0,0.0,67,0.00,,CLR,0.00,VWS V14.01,2013-02-14 14:50:00,
2013-02-14 08:55:00,47.9,36.7,30.16,East,94,0.0,0.0,65,0.00,,CLR,0.00,VWS V14.01,2013-02-14 14:55:00,
2013-02-14 09:00:00,48.8,36.8,30.16,SSE,150,0.0,0.0,63,0.00,,CLR,0.00,VWS V14.01,2013-02-14 15:00:00,
2013-02-14 09:05:00,48.9,36.5,30.17,SSE,150,0.0,0.0,62,0.00,,CLR,0.00,VWS V14.01,2013-02-14 15:05:00,
2013-02-14 09:10:00,49.4,37.3,30.17,SSE,150,0.0,0.0,63,0.00,,CLR,0.00,VWS V14.01,2013-02-14 15:10:00,
2013-02-14 09:15:00,49.6,37.5,30.17,SSE,150,2.0,2.0,63,0.00,,CLR,0.00,VWS V14.01,2013-02-14 15:15:00,
2013-02-14 09:20:00,49.8,37.7,30.17,SSE,150,0.0,0.0,63,0.00,,CLR,0.00,VWS V14.01,2013-02-14 15:20:00,
2013-02-14 09:25:00,50.5,38.4,30.17,SSE,150,0.0,0.0,63,0.00,,CLR,0.00,VWS V14.01,2013-02-14 15:25:00,
2013-02-14 09:30:00,50.8,38.3,30.17,SSE,150,0.0,0.0,62,0.00,,CLR,0.00,VWS V14.01,2013-02-14 15:30:00,
2013-02-14 09:35:00,51.4,38.4,30.17,SSE,150,0.0,0.0,61,0.00,,CLR,0.00,VWS V14.01,2013-02-14 15:35:00,
2013-02-14 09:40:00,51.9,38.9,30.18,SSE,150,0.0,0.0,61,0.00,,CLR,0.00,VWS V14.01,2013-02-14 15:40:00,
2013-02-14 09:45:00,52.8,39.3,30.18,SSE,150,0.0,1.0,60,0.00,,CLR,0.00,VWS V14.01,2013-02-14 15:45:00,
2013-02-14 09:50:00,53.2,39.3,30.17,SSE,150,0.0,2.0,59,0.00,,CLR,0.00,VWS V14.01,2013-02-14 15:50:00,
2013-02-14 09:55:00,53.6,39.6,30.17,SSE,150,0.0,3.0,59,0.00,,CLR,0.00,VWS V14.01,2013-02-14 15:55:00,
2013-02-14 10:00:00,54.1,39.2,30.17,SSE,150,0.0,3.0,57,0.00,,CLR,0.00,VWS V14.01,2013-02-14 16:00:00,
2013-02-14 10:05:00,54.7,39.8,30.17,SSE,150,0.0,3.0,57,0.00,,CLR,0.00,VWS V14.01,2013-02-14 16:05:00,
2013-02-14 10:10:00,55.3,39.4,30.17,SSE,155,0.0,3.0,55,0.00,,CLR,0.00,VWS V14.01,2013-02-14 16:10:00,
2013-02-14 10:15:00,56.0,39.6,30.17,SSE,155,0.0,3.0,54,0.00,,CLR,0.00,VWS V14.01,2013-02-14 16:15:00,
2013-02-14 10:20:00,56.7,39.3,30.17,SSE,159,0.0,2.0,52,0.00,,CLR,0.00,VWS V14.01,2013-02-14 16:20:00,
2013-02-14 10:25:00,57.5,39.5,30.17,SSW,192,0.0,4.0,51,0.00,,CLR,0.00,VWS V14.01,2013-02-14 16:25:00,
2013-02-14 10:30:00,57.8,38.8,30.17,South,190,4.0,6.0,49,0.00,,CLR,0.00,VWS V14.01,2013-02-14 16:30:00,
2013-02-14 10:35:00,58.1,38.5,30.17,South,183,2.0,6.0,48,0.00,,CLR,0.00,VWS V14.01,2013-02-14 16:35:00,
2013-02-14 10:40:00,58.3,39.2,30.17,South,184,2.0,3.0,49,0.00,,CLR,0.00,VWS V14.01,2013-02-14 16:40:00,
2013-02-14 10:45:00,59.0,38.3,30.17,WSW,240,1.0,6.0,46,0.00,,CLR,0.00,VWS V14.01,2013-02-14 16:45:00,
2013-02-14 10:50:00,59.9,38.0,30.17,SE,134,1.0,5.0,44,0.00,,CLR,0.00,VWS V14.01,2013-02-14 16:50:00,
2013-02-14 10:55:00,60.4,36.6,30.16,SW,219,0.0,5.0,41,0.00,,CLR,0.00,VWS V14.01,2013-02-14 16:55:00,
2013-02-14 11:00:00,60.9,37.1,30.16,South,184,4.0,6.0,41,0.00,,CLR,0.00,VWS V14.01,2013-02-14 17:00:00,
2013-02-14 11:05:00,60.9,35.8,30.16,SSE,165,2.0,10.0,39,0.00,,CLR,0.00,VWS V14.01,2013-02-14 17:05:00,
2013-02-14 11:10:00,61.2,36.1,30.16,SSW,197,6.0,10.0,39,0.00,,CLR,0.00,VWS V14.01,2013-02-14 17:10:00,
2013-02-14 11:15:00,61.6,36.4,30.16,South,177,0.0,10.0,39,0.00,,CLR,0.00,VWS V14.01,2013-02-14 17:15:00,
2013-02-14 11:20:00,62.0,34.1,30.16,SSW,192,3.0,10.0,35,0.00,,CLR,0.00,VWS V14.01,2013-02-14 17:20:00,
2013-02-14 11:24:00,62.3,35.0,30.16,SSE,168,3.0,10.0,36,0.00,,CLR,0.00,VWS V14.01,2013-02-14 17:24:00,
2013-02-14 11:29:00,62.7,35.4,30.16,South,171,4.0,9.0,36,0.00,,CLR,0.00,VWS V14.01,2013-02-14 17:29:00,
2013-02-14 11:34:00,63.1,35.0,30.16,SSW,192,2.0,9.0,35,0.00,,CLR,0.00,VWS V14.01,2013-02-14 17:34:00,
2013-02-14 11:39:00,63.2,33.6,30.16,South,185,8.0,8.0,33,0.00,,CLR,0.00,VWS V14.01,2013-02-14 17:39:00,
2013-02-14 11:44:00,63.2,35.1,30.16,SSE,165,3.0,8.0,35,0.00,,CLR,0.00,VWS V14.01,2013-02-14 17:44:00,
2013-02-14 11:49:00,63.7,34.8,30.16,South,181,2.0,8.0,34,0.00,,CLR,0.00,VWS V14.01,2013-02-14 17:49:00,
2013-02-14 11:54:00,64.0,35.1,30.15,SW,221,2.0,8.0,34,0.00,,CLR,0.00,VWS V14.01,2013-02-14 17:54:00,
2013-02-14 11:59:00,64.3,34.6,30.15,SSW,212,0.0,6.0,33,0.00,,CLR,0.00,VWS V14.01,2013-02-14 17:59:00,
2013-02-14 12:04:00,64.7,33.4,30.15,WSW,245,0.0,7.0,31,0.00,,CLR,0.00,VWS V14.01,2013-02-14 18:04:00,
2013-02-14 12:09:00,65.0,32.8,30.15,South,178,4.0,5.0,30,0.00,,CLR,0.00,VWS V14.01,2013-02-14 18:09:00,
2013-02-14 12:14:00,64.8,34.3,30.15,SSE,167,0.0,8.0,32,0.00,,CLR,0.00,VWS V14.01,2013-02-14 18:14:00,
2013-02-14 12:19:00,64.7,34.2,30.15,South,177,1.0,6.0,32,0.00,,CLR,0.00,VWS V14.01,2013-02-14 18:19:00,
2013-02-14 12:24:00,65.0,34.5,30.14,SSE,152,4.0,10.0,32,0.00,,CLR,0.00,VWS V14.01,2013-02-14 18:24:00,
2013-02-14 12:29:00,65.0,36.0,30.14,SSW,193,4.0,10.0,34,0.00,,CLR,0.00,VWS V14.01,2013-02-14 18:29:00,
2013-02-14 12:34:00,65.2,36.2,30.14,SSW,193,5.0,10.0,34,0.00,,CLR,0.00,VWS V14.01,2013-02-14 18:34:00,
2013-02-14 12:39:00,65.2,36.2,30.14,South,182,1.0,9.0,34,0.00,,CLR,0.00,VWS V14.01,2013-02-14 18:39:00,
2013-02-14 12:44:00,65.6,36.5,30.14,South,189,1.0,9.0,34,0.00,,CLR,0.00,VWS V14.01,2013-02-14 18:44:00,
2013-02-14 12:49:00,65.8,36.7,30.14,SSE,165,0.0,6.0,34,0.00,,CLR,0.00,VWS V14.01,2013-02-14 18:49:00,
2013-02-14 12:54:00,66.3,37.8,30.12,SSW,202,2.0,9.0,35,0.00,,CLR,0.00,VWS V14.01,2013-02-14 18:54:00,
2013-02-14 12:59:00,66.4,37.9,30.12,SW,225,0.0,3.0,35,0.00,,CLR,0.00,VWS V14.01,2013-02-14 18:59:00,
2013-02-14 13:04:00,66.6,37.4,30.12,South,190,0.0,9.0,34,0.00,,CLR,0.00,VWS V14.01,2013-02-14 19:04:00,
2013-02-14 13:09:00,66.9,36.1,30.12,South,179,4.0,6.0,32,0.00,,CLR,0.00,VWS V14.01,2013-02-14 19:09:00,
2013-02-14 13:14:00,66.8,36.8,30.12,SW,234,0.0,11.0,33,0.00,,CLR,0.00,VWS V14.01,2013-02-14 19:14:00,
2013-02-14 13:19:00,67.3,36.5,30.12,SSE,160,1.0,4.0,32,0.00,,CLR,0.00,VWS V14.01,2013-02-14 19:19:00,
2013-02-14 13:24:00,67.4,35.7,30.11,SSW,193,6.0,12.0,31,0.00,,CLR,0.00,VWS V14.01,2013-02-14 19:24:00,
2013-02-14 13:29:00,67.1,35.5,30.11,South,184,0.0,7.0,31,0.00,,CLR,0.00,VWS V14.01,2013-02-14 19:29:00,
2013-02-14 13:34:00,67.8,34.4,30.11,SSW,201,6.0,10.0,29,0.00,,CLR,0.00,VWS V14.01,2013-02-14 19:34:00,
2013-02-14 13:39:00,67.6,34.2,30.09,SSW,206,2.0,6.0,29,0.00,,CLR,0.00,VWS V14.01,2013-02-14 19:39:00,
2013-02-14 13:44:00,67.9,34.5,30.09,SSW,196,3.0,10.0,29,0.00,,CLR,0.00,VWS V14.01,2013-02-14 19:44:00,
2013-02-14 13:49:00,68.4,34.0,30.09,SSW,196,3.0,11.0,28,0.00,,CLR,0.00,VWS V14.01,2013-02-14 19:49:00,
2013-02-14 13:54:00,68.6,34.2,30.08,SSE,149,0.0,11.0,28,0.00,,CLR,0.00,VWS V14.01,2013-02-14 19:54:00,
2013-02-14 13:59:00,68.8,34.4,30.08,SW,218,2.0,4.0,28,0.00,,CLR,0.00,VWS V14.01,2013-02-14 19:59:00,
2013-02-14 14:04:00,69.3,34.8,30.08,SSW,194,3.0,6.0,28,0.00,,CLR,0.00,VWS V14.01,2013-02-14 20:04:00,
2013-02-14 14:09:00,68.4,34.9,30.08,South,184,5.0,9.0,29,0.00,,CLR,0.00,VWS V14.01,2013-02-14 20:09:00,
2013-02-14 14:14:00,68.8,34.4,30.08,South,175,5.0,9.0,28,0.00,,CLR,0.00,VWS V14.01,2013-02-14 20:14:00,
2013-02-14 14:19:00,69.4,34.0,30.08,SE,144,2.0,3.0,27,0.00,,CLR,0.00,VWS V14.01,2013-02-14 20:19:00,
2013-02-14 14:24:00,69.8,35.3,30.06,South,169,5.0,9.0,28,0.00,,CLR,0.00,VWS V14.01,2013-02-14 20:24:00,
2013-02-14 14:29:00,69.4,34.0,30.06,South,190,0.0,5.0,27,0.00,,CLR,0.00,VWS V14.01,2013-02-14 20:29:00,
2013-02-14 14:34:00,69.3,34.8,30.06,South,173,4.0,9.0,28,0.00,,CLR,0.00,VWS V14.01,2013-02-14 20:34:00,
2013-02-14 14:39:00,68.8,34.4,30.06,SW,217,0.0,7.0,28,0.00,,CLR,0.00,VWS V14.01,2013-02-14 20:39:00,
2013-02-14 14:44:00,69.6,35.1,30.06,South,191,2.0,7.0,28,0.00,,CLR,0.00,VWS V14.01,2013-02-14 20:44:00,
2013-02-14 14:49:00,69.4,34.0,30.06,South,190,3.0,7.0,27,0.00,,CLR,0.00,VWS V14.01,2013-02-14 20:49:00,
2013-02-14 14:54:00,69.6,34.2,30.05,South,189,2.0,7.0,27,0.00,,CLR,0.00,VWS V14.01,2013-02-14 20:54:00,
2013-02-14 14:59:00,70.1,35.5,30.05,SW,228,0.0,4.0,28,0.00,,CLR,0.00,VWS V14.01,2013-02-14 20:59:00,
2013-02-14 15:04:00,70.4,35.8,30.05,South,188,5.0,7.0,28,0.00,,CLR,0.00,VWS V14.01,2013-02-14 21:04:00,
2013-02-14 15:09:00,70.1,35.5,30.05,SSW,192,10.0,10.0,28,0.00,,CLR,0.00,VWS V14.01,2013-02-14 21:09:00,
2013-02-14 15:14:00,69.9,35.3,30.05,SSW,196,5.0,10.0,28,0.00,,CLR,0.00,VWS V14.01,2013-02-14 21:14:00,
2013-02-14 15:19:00,70.1,34.6,30.05,South,190,2.0,6.0,27,0.00,,CLR,0.00,VWS V14.01,2013-02-14 21:19:00,
2013-02-14 15:24:00,70.6,35.9,30.04,SSE,160,5.0,7.0,28,0.00,,CLR,0.00,VWS V14.01,2013-02-14 21:24:00,
2013-02-14 15:29:00,69.8,35.3,30.04,SE,135,10.0,12.0,28,0.00,,CLR,0.00,VWS V14.01,2013-02-14 21:29:00,
2013-02-14 15:34:00,69.6,35.1,30.04,South,178,2.0,12.0,28,0.00,,CLR,0.00,VWS V14.01,2013-02-14 21:34:00,
2013-02-14 15:39:00,69.8,35.3,30.04,South,178,2.0,5.0,28,0.00,,CLR,0.00,VWS V14.01,2013-02-14 21:39:00,
2013-02-14 15:44:00,70.3,34.8,30.04,South,169,3.0,7.0,27,0.00,,CLR,0.00,VWS V14.01,2013-02-14 21:44:00,
2013-02-14 15:49:00,70.1,35.5,30.04,SSW,193,3.0,8.0,28,0.00,,CLR,0.00,VWS V14.01,2013-02-14 21:49:00,
2013-02-14 15:54:00,70.3,34.8,30.04,South,188,4.0,9.0,27,0.00,,CLR,0.00,VWS V14.01,2013-02-14 21:54:00,
2013-02-14 15:59:00,70.1,34.6,30.04,South,169,2.0,7.0,27,0.00,,CLR,0.00,VWS V14.01,2013-02-14 21:59:00,
2013-02-14 16:04:00,69.9,34.4,30.04,SSW,193,1.0,11.0,27,0.00,,CLR,0.00,VWS V14.01,2013-02-14 22:04:00,
2013-02-14 16:09:00,69.8,34.3,30.03,South,184,5.0,7.0,27,0.00,,CLR,0.00,VWS V14.01,2013-02-14 22:09:00,
2013-02-14 16:14:00,69.8,34.3,30.03,South,191,4.0,10.0,27,0.00,,CLR,0.00,VWS V14.01,2013-02-14 22:14:00,
2013-02-14 16:19:00,69.9,34.4,30.03,South,190,1.0,6.0,27,0.00,,CLR,0.00,VWS V14.01,2013-02-14 22:19:00,
2013-02-14 16:24:00,69.9,35.3,30.04,South,182,4.0,10.0,28,0.00,,CLR,0.00,VWS V14.01,2013-02-14 22:24:00,
2013-02-14 16:29:00,69.8,35.3,30.04,South,186,2.0,10.0,28,0.00,,CLR,0.00,VWS V14.01,2013-02-14 22:29:00,
2013-02-14 16:34:00,70.1,35.5,30.04,SSW,193,0.0,10.0,28,0.00,,CLR,0.00,VWS V14.01,2013-02-14 22:34:00,
2013-02-14 16:39:00,70.3,34.8,30.04,SSW,192,0.0,6.0,27,0.00,,CLR,0.00,VWS V14.01,2013-02-14 22:39:00,
2013-02-14 16:44:00,70.3,34.8,30.04,South,176,0.0,11.0,27,0.00,,CLR,0.00,VWS V14.01,2013-02-14 22:44:00,
2013-02-14 16:49:00,70.1,33.7,30.04,South,175,0.0,6.0,26,0.00,,CLR,0.00,VWS V14.01,2013-02-14 22:49:00,
2013-02-14 16:54:00,70.1,35.5,30.04,SSE,163,4.0,6.0,28,0.00,,CLR,0.00,VWS V14.01,2013-02-14 22:54:00,
2013-02-14 16:59:00,69.8,35.3,30.04,SSE,165,0.0,6.0,28,0.00,,CLR,0.00,VWS V14.01,2013-02-14 22:59:00,
2013-02-14 17:04:00,69.6,35.1,30.04,South,171,2.0,7.0,28,0.00,,CLR,0.00,VWS V14.01,2013-02-14 23:04:00,
2013-02-14 17:09:00,69.6,34.2,30.05,SSE,167,5.0,9.0,27,0.00,,CLR,0.00,VWS V14.01,2013-02-14 23:09:00,
2013-02-14 17:14:00,69.3,34.8,30.05,SSE,165,6.0,9.0,28,0.00,,CLR,0.00,VWS V14.01,2013-02-14 23:14:00,
2013-02-14 17:19:00,69.1,33.7,30.05,South,169,0.0,6.0,27,0.00,,CLR,0.00,VWS V14.01,2013-02-14 23:19:00,
2013-02-14 17:24:00,69.1,33.7,30.05,SSE,168,3.0,9.0,27,0.00,,CLR,0.00,VWS V14.01,2013-02-14 23:24:00,
2013-02-14 17:29:00,68.9,33.6,30.05,South,176,7.0,7.0,27,0.00,,CLR,0.00,VWS V14.01,2013-02-14 23:29:00,
2013-02-14 17:34:00,68.4,34.0,30.05,South,175,0.0,8.0,28,0.00,,CLR,0.00,VWS V14.01,2013-02-14 23:34:00,
2013-02-14 17:39:00,68.3,34.0,30.05,SSE,153,1.0,5.0,28,0.00,,CLR,0.00,VWS V14.01,2013-02-14 23:39:00,
2013-02-14 17:44:00,67.9,33.6,30.05,SSE,164,0.0,5.0,28,0.00,,CLR,0.00,VWS V14.01,2013-02-14 23:44:00,
2013-02-14 17:49:00,67.8,34.4,30.05,SSE,161,0.0,3.0,29,0.00,,CLR,0.00,VWS V14.01,2013-02-14 23:49:00,
2013-02-14 17:54:00,67.6,33.4,30.04,South,176,0.0,6.0,28,0.00,,CLR,0.00,VWS V14.01,2013-02-14 23:54:00,
2013-02-14 17:59:00,67.3,34.0,30.04,South,184,0.0,4.0,29,0.00,,CLR,0.00,VWS V14.01,2013-02-14 23:59:00,
2013-02-14 18:04:00,67.1,34.7,30.04,South,173,0.0,4.0,30,0.00,,CLR,0.00,VWS V14.01,2013-02-15 00:04:00,
2013-02-14 18:09:00,66.9,34.5,30.05,South,169,0.0,3.0,30,0.00,,CLR,0.00,VWS V14.01,2013-02-15 00:09:00,
2013-02-14 18:14:00,66.6,35.0,30.05,SSE,161,0.0,3.0,31,0.00,,CLR,0.00,VWS V14.01,2013-02-15 00:14:00,
2013-02-14 18:19:00,66.3,34.8,30.05,SSE,161,0.0,0.0,31,0.00,,CLR,0.00,VWS V14.01,2013-02-15 00:19:00,
2013-02-14 18:24:00,66.0,35.3,30.05,SSE,161,0.0,0.0,32,0.00,,CLR,0.00,VWS V14.01,2013-02-15 00:24:00,
2013-02-14 18:29:00,65.6,35.0,30.05,SSE,161,0.0,0.0,32,0.00,,CLR,0.00,VWS V14.01,2013-02-15 00:29:00,
2013-02-14 18:34:00,65.5,35.7,30.05,SSE,161,0.0,0.0,33,0.00,,CLR,0.00,VWS V14.01,2013-02-15 00:34:00,
2013-02-14 18:39:00,65.2,36.2,30.05,SSE,161,0.0,0.0,34,0.00,,CLR,0.00,VWS V14.01,2013-02-15 00:39:00,
2013-02-14 18:44:00,64.8,35.8,30.05,SSE,161,0.0,0.0,34,0.00,,CLR,0.00,VWS V14.01,2013-02-15 00:44:00,
2013-02-14 18:49:00,64.5,36.3,30.05,SSE,161,0.0,0.0,35,0.00,,CLR,0.00,VWS V14.01,2013-02-15 00:49:00,
2013-02-14 18:54:00,64.2,36.0,30.06,SSE,161,0.0,0.0,35,0.00,,CLR,0.00,VWS V14.01,2013-02-15 00:54:00,
2013-02-14 18:59:00,63.9,35.7,30.06,SSE,161,0.0,0.0,35,0.00,,CLR,0.00,VWS V14.01,2013-02-15 00:59:00,
2013-02-14 19:04:00,63.5,36.1,30.06,SSE,161,0.0,0.0,36,0.00,,CLR,0.00,VWS V14.01,2013-02-15 01:04:00,
2013-02-14 19:09:00,63.4,36.0,30.06,SSE,161,0.0,0.0,36,0.00,,CLR,0.00,VWS V14.01,2013-02-15 01:09:00,
2013-02-14 19:14:00,62.9,36.2,30.06,SSE,161,0.0,0.0,37,0.00,,CLR,0.00,VWS V14.01,2013-02-15 01:14:00,
2013-02-14 19:19:00,62.6,36.7,30.06,SSE,161,0.0,0.0,38,0.00,,CLR,0.00,VWS V14.01,2013-02-15 01:19:00,
2013-02-14 19:24:00,62.1,36.9,30.06,SSE,161,0.0,0.0,39,0.00,,CLR,0.00,VWS V14.01,2013-02-15 01:24:00,
2013-02-14 19:29:00,61.8,37.2,30.06,SSE,161,0.0,0.0,40,0.00,,CLR,0.00,VWS V14.01,2013-02-15 01:29:00,
2013-02-14 19:34:00,61.3,36.8,30.06,SSE,161,0.0,0.0,40,0.00,,CLR,0.00,VWS V14.01,2013-02-15 01:34:00,
2013-02-14 19:39:00,60.9,37.1,30.07,SSE,161,0.0,0.0,41,0.00,,CLR,0.00,VWS V14.01,2013-02-15 01:39:00,
2013-02-14 19:44:00,60.4,36.6,30.07,SSE,161,0.0,0.0,41,0.00,,CLR,0.00,VWS V14.01,2013-02-15 01:44:00,
2013-02-14 19:49:00,60.2,37.0,30.07,SSE,161,0.0,0.0,42,0.00,,CLR,0.00,VWS V14.01,2013-02-15 01:49:00,
2013-02-14 19:54:00,60.1,37.0,30.06,SSE,161,0.0,0.0,42,0.00,,CLR,0.00,VWS V14.01,2013-02-15 01:54:00,
2013-02-14 19:59:00,59.8,37.3,30.06,SSE,161,0.0,0.0,43,0.00,,CLR,0.00,VWS V14.01,2013-02-15 01:59:00,
2013-02-14 20:04:00,59.5,37.0,30.06,SSE,161,0.0,0.0,43,0.00,,CLR,0.00,VWS V14.01,2013-02-15 02:04:00,
2013-02-14 20:09:00,59.0,37.1,30.07,SSE,161,0.0,0.0,44,0.00,,CLR,0.00,VWS V14.01,2013-02-15 02:09:00,
2013-02-14 20:14:00,58.7,36.9,30.07,SSE,161,0.0,0.0,44,0.00,,CLR,0.00,VWS V14.01,2013-02-15 02:14:00,
2013-02-14 20:19:00,58.4,37.2,30.07,SSE,161,0.0,0.0,45,0.00,,CLR,0.00,VWS V14.01,2013-02-15 02:19:00,
2013-02-14 20:24:00,58.3,37.6,30.06,SSE,161,0.0,0.0,46,0.00,,CLR,0.00,VWS V14.01,2013-02-15 02:24:00,
2013-02-14 20:29:00,58.0,37.4,30.06,SSE,161,0.0,0.0,46,0.00,,CLR,0.00,VWS V14.01,2013-02-15 02:29:00,
2013-02-14 20:34:00,57.8,37.2,30.06,SSE,161,0.0,0.0,46,0.00,,CLR,0.00,VWS V14.01,2013-02-15 02:34:00,
2013-02-14 20:39:00,57.6,37.0,30.06,SSE,161,0.0,0.0,46,0.00,,CLR,0.00,VWS V14.01,2013-02-15 02:39:00,
2013-02-14 20:44:00,57.5,37.5,30.06,SSE,161,0.0,0.0,47,0.00,,CLR,0.00,VWS V14.01,2013-02-15 02:44:00,
2013-02-14 20:49:00,57.2,37.2,30.06,SSE,161,0.0,0.0,47,0.00,,CLR,0.00,VWS V14.01,2013-02-15 02:49:00,
2013-02-14 20:54:00,57.0,37.0,30.07,SSE,161,0.0,0.0,47,0.00,,CLR,0.00,VWS V14.01,2013-02-15 02:54:00,
2013-02-14 20:59:00,57.3,36.7,30.07,SSE,150,6.0,11.0,46,0.00,,CLR,0.00,VWS V14.01,2013-02-15 02:59:00,
2013-02-14 21:04:00,57.3,37.3,30.07,ESE,119,6.0,11.0,47,0.00,,CLR,0.00,VWS V14.01,2013-02-15 03:04:00,
2013-02-14 21:09:00,57.0,37.5,30.08,SSE,164,3.0,4.0,48,0.00,,CLR,0.00,VWS V14.01,2013-02-15 03:09:00,
2013-02-14 21:14:00,56.9,38.0,30.08,SSE,163,0.0,6.0,49,0.00,,CLR,0.00,VWS V14.01,2013-02-15 03:14:00,
2013-02-14 21:19:00,56.9,38.5,30.08,ESE,115,1.0,6.0,50,0.00,,CLR,0.00,VWS V14.01,2013-02-15 03:19:00,
2013-02-14 21:24:00,56.9,38.5,30.08,South,171,0.0,6.0,50,0.00,,CLR,0.00,VWS V14.01,2013-02-15 03:24:00,
2013-02-14 21:29:00,56.9,39.0,30.08,SE,137,4.0,11.0,51,0.00,,CLR,0.00,VWS V14.01,2013-02-15 03:29:00,
2013-02-14 21:34:00,56.7,38.8,30.08,South,182,5.0,11.0,51,0.00,,CLR,0.00,VWS V14.01,2013-02-15 03:34:00,
2013-02-14 21:39:00,56.6,38.7,30.08,SSE,166,3.0,5.0,51,0.00,,CLR,0.00,VWS V14.01,2013-02-15 03:39:00,
2013-02-14 21:44:00,56.5,39.1,30.08,ESE,118,1.0,7.0,52,0.00,,CLR,0.00,VWS V14.01,2013-02-15 03:44:00,
2013-02-14 21:49:00,56.2,38.8,30.08,ESE,119,0.0,3.0,52,0.00,,CLR,0.00,VWS V14.01,2013-02-15 03:49:00,
2013-02-14 21:54:00,56.0,38.6,30.09,SE,145,0.0,3.0,52,0.00,,CLR,0.00,VWS V14.01,2013-02-15 03:54:00,
2013-02-14 21:59:00,55.7,38.8,30.09,SSE,159,0.0,4.0,53,0.00,,CLR,0.00,VWS V14.01,2013-02-15 03:59:00,
2013-02-14 22:04:00,55.6,38.8,30.09,SE,132,3.0,4.0,53,0.00,,CLR,0.00,VWS V14.01,2013-02-15 04:04:00,
2013-02-14 22:09:00,55.4,38.6,30.09,SSE,167,0.0,5.0,53,0.00,,CLR,0.00,VWS V14.01,2013-02-15 04:09:00,
2013-02-14 22:14:00,55.1,38.8,30.09,SE,135,1.0,5.0,54,0.00,,CLR,0.00,VWS V14.01,2013-02-15 04:14:00,
2013-02-14 22:19:00,55.0,38.7,30.09,SSE,162,0.0,5.0,54,0.00,,CLR,0.00,VWS V14.01,2013-02-15 04:19:00,
2013-02-14 22:24:00,54.8,38.5,30.09,SSE,156,0.0,9.0,54,0.00,,CLR,0.00,VWS V14.01,2013-02-15 04:24:00,
2013-02-14 22:29:00,54.7,38.4,30.09,SE,143,0.0,6.0,54,0.00,,CLR,0.00,VWS V14.01,2013-02-15 04:29:00,
2013-02-14 22:34:00,54.7,38.4,30.09,SSE,153,0.0,6.0,54,0.00,,CLR,0.00,VWS V14.01,2013-02-15 04:34:00,
2013-02-14 22:39:00,54.5,38.7,30.09,SE,127,0.0,3.0,55,0.00,,CLR,0.00,VWS V14.01,2013-02-15 04:39:00,
2013-02-14 22:44:00,54.2,38.4,30.09,SSE,159,4.0,5.0,55,0.00,,CLR,0.00,VWS V14.01,2013-02-15 04:44:00,
2013-02-14 22:49:00,54.1,38.3,30.09,SSE,163,3.0,3.0,55,0.00,,CLR,0.00,VWS V14.01,2013-02-15 04:49:00,
2013-02-14 22:54:00,53.9,38.1,30.09,South,172,4.0,5.0,55,0.00,,CLR,0.00,VWS V14.01,2013-02-15 04:54:00,
2013-02-14 22:59:00,53.8,38.0,30.09,SSE,167,0.0,6.0,55,0.00,,CLR,0.00,VWS V14.01,2013-02-15 04:59:00,
2013-02-14 23:00:00,53.8,38.0,30.09,SSE,167,0.0,6.0,55,0.00,,CLR,0.00,VWS V14.01,2013-02-15 05:00:00,
2013-02-14 23:05:00,53.6,37.8,30.10,SSE,161,0.0,6.0,55,0.00,,CLR,0.00,VWS V14.01,2013-02-15 05:05:00,
2013-02-14 23:10:00,53.5,37.3,30.10,SSE,155,2.0,2.0,54,0.00,,CLR,0.00,VWS V14.01,2013-02-15 05:10:00,
2013-02-14 23:15:00,53.3,37.1,30.10,SSE,155,0.0,4.0,54,0.00,,CLR,0.00,VWS V14.01,2013-02-15 05:15:00,
2013-02-14 23:20:00,53.3,36.6,30.09,SSE,156,0.0,4.0,53,0.00,,CLR,0.00,VWS V14.01,2013-02-15 05:20:00,
2013-02-14 23:25:00,53.2,36.5,30.09,SSE,148,3.0,4.0,53,0.00,,CLR,0.00,VWS V14.01,2013-02-15 05:25:00,
2013-02-14 23:30:00,53.1,36.4,30.09,SSE,153,1.0,4.0,53,0.00,,CLR,0.00,VWS V14.01,2013-02-15 05:30:00,
2013-02-14 23:35:00,52.9,35.8,30.09,SSE,149,0.0,4.0,52,0.00,,CLR,0.00,VWS V14.01,2013-02-15 05:35:00,
2013-02-14 23:40:00,52.9,35.3,30.09,SSE,148,0.0,0.0,51,0.00,,CLR,0.00,VWS V14.01,2013-02-15 05:40:00,
2013-02-14 23:45:00,52.8,35.2,30.09,SSE,150,3.0,3.0,51,0.00,,CLR,0.00,VWS V14.01,2013-02-15 05:45:00,
2013-02-14 23:50:00,52.8,35.2,30.10,SSE,150,0.0,0.0,51,0.00,,CLR,0.00,VWS V14.01,2013-02-15 05:50:00,
2013-02-14 23:55:00,52.6,35.0,30.10,SSE,151,0.0,4.0,51,0.00,,CLR,0.00,VWS V14.01,2013-02-15 05:55:00,